Weather History for Edinburgh Airport, United Kingdom

Change the Weather History Date:

Monday, March 24, 2014

  Actual Average Record
Temperature  
Mean Temperature 36 °F -  
Max Temperature 51 °F 51 °F 60 °F (2003)
Min Temperature 21 °F 37 °F 21 °F (2014)
Degree Days  
Heating Degree Days 29    
Moisture  
Dew Point 27 °F    
Average Humidity 65    
Maximum Humidity 100    
Minimum Humidity 37    
Precipitation  
Precipitation 0.00 in 0.06 in - ()
Sea Level Pressure  
Sea Level Pressure 29.77 in    
Wind  
Wind Speed 5 mph ()    
Max Wind Speed 18 mph    
Max Gust Speed -    
Visibility 6.2 miles    
Events      
Averages and records for this station are not official NWS values.
T = Trace of Precipitation, MM = Missing Value Source: Averaged Metar Reports

Daily Weather History Graph

Daily Weather History Graph

Search for Another Location

Airport:

Trip Planner

Search our weather history database for the weather conditions in past years. The results will help you decide how hot, cold, wet, or windy it might be!

Date:

Astronomy

Mar. 24, 2014 Rise Set
Actual Time 6:05 AM GMT 6:35 PM GMT
Civil Twilight 5:28 AM GMT 7:12 PM GMT
Nautical Twilight 4:43 AM GMT 7:57 PM GMT
Astronomical Twilight 3:55 AM GMT 8:45 PM GMT
Moon 2:23 AM GMT (3/24) 10:44 AM GMT (3/24)
Length of Visible Light 13h 44m
Length of Day
12h 29m
Last Quarter, 45% of the Moon is Illuminated
Mar 24
Last Quarter
Mar 30
New
Apr 7
First Quarter
Apr 15
Full
Apr 22
Last Quarter

Hourly Weather History & Observations

Time (GMT) Temp. Windchill Dew Point Humidity Pressure Visibility Wind Dir Wind Speed Gust Speed Precip Events Conditions
12:20 AM 28.4 °F - 23.0 °F 80% 29.92 in - Variable 2.3 mph - N/A   Clear
12:50 AM 26.6 °F 22.6 °F 23.0 °F 86% 29.92 in - West 3.5 mph - N/A   Clear
1:20 AM 24.8 °F - 21.2 °F 86% 29.92 in - Calm Calm - N/A   Clear
1:50 AM 24.8 °F - 21.2 °F 86% 29.92 in - Calm Calm - N/A   Clear
2:20 AM 24.8 °F - 23.0 °F 93% 29.89 in - Calm Calm - N/A   Clear
2:50 AM 24.8 °F - 23.0 °F 93% 29.89 in - Calm Calm - N/A   Clear
3:20 AM 23.0 °F - 21.2 °F 93% 29.89 in 6.2 mi Calm Calm - N/A   Unknown
3:50 AM 24.8 °F - 23.0 °F 93% 29.89 in - WSW 2.3 mph - N/A   Clear
4:20 AM 23.0 °F - 21.2 °F 93% 29.89 in - Calm Calm - N/A   Clear
4:50 AM 23.0 °F - 23.0 °F 100% 29.89 in - Calm Calm - N/A   Clear
5:20 AM 21.2 °F - 19.4 °F 93% 29.89 in - Calm Calm - N/A   Clear
5:50 AM 23.0 °F - 21.2 °F 93% 29.89 in - Calm Calm - N/A   Clear
6:20 AM 21.2 °F - 21.2 °F 100% 29.89 in - Variable 2.3 mph - N/A   Clear
6:50 AM 23.0 °F - 23.0 °F 100% 29.86 in - Calm Calm - N/A   Clear
7:20 AM 26.6 °F - 24.8 °F 93% 29.86 in - Calm Calm - N/A   Clear
7:50 AM 30.2 °F - 28.4 °F 93% 29.86 in - NW 2.3 mph - N/A   Clear
8:20 AM 33.8 °F - 30.2 °F 87% 29.86 in - Calm Calm - N/A   Clear
8:50 AM 39.2 °F 37.0 °F 30.2 °F 70% 29.86 in - Variable 3.5 mph - N/A   Clear
9:20 AM 42.8 °F - 28.4 °F 57% 29.83 in - Variable 2.3 mph - N/A   Clear
9:50 AM 44.6 °F 41.4 °F 28.4 °F 53% 29.83 in - SSE 5.8 mph - N/A   Clear
10:20 AM 46.4 °F 41.9 °F 28.4 °F 50% 29.83 in - SSE 9.2 mph - N/A   Clear
10:50 AM 46.4 °F 40.4 °F 24.8 °F 43% 29.83 in - SSE 13.8 mph - N/A   Clear
11:20 AM 48.2 °F - 26.6 °F 43% 29.80 in - SSE 11.5 mph - N/A   Clear
11:50 AM 48.2 °F - 28.4 °F 46% 29.80 in - SSE 10.4 mph - N/A   Clear
12:20 PM 50.0 °F - 28.4 °F 43% 29.77 in - SSE 13.8 mph - N/A   Clear
12:50 PM 50.0 °F - 26.6 °F 40% 29.77 in - SSE 12.7 mph - N/A   Clear
1:20 PM 50.0 °F - 24.8 °F 37% 29.74 in - SSE 13.8 mph - N/A   Clear
1:50 PM 51.8 °F - 26.6 °F 38% 29.74 in - SSE 11.5 mph - N/A   Clear
2:20 PM 51.8 °F - 26.6 °F 38% 29.71 in - South 12.7 mph - N/A   Clear
2:50 PM 51.8 °F - 26.6 °F 38% 29.71 in - SSE 15.0 mph - N/A   Clear
3:20 PM 51.8 °F - 26.6 °F 38% 29.71 in - SSE 13.8 mph - N/A   Clear
3:50 PM 51.8 °F - 26.6 °F 38% 29.68 in - SSE 13.8 mph - N/A   Clear
4:20 PM 51.8 °F - 26.6 °F 38% 29.68 in - SSE 16.1 mph - N/A   Clear
4:50 PM 50.0 °F - 26.6 °F 40% 29.68 in - SSE 16.1 mph - N/A   Clear
5:20 PM 50.0 °F - 28.4 °F 43% 29.68 in - SE 15.0 mph - N/A   Clear
5:50 PM 48.2 °F - 28.4 °F 46% 29.65 in - SE 11.5 mph - N/A   Clear
6:20 PM 46.4 °F 40.1 °F 32.0 °F 57% 29.65 in - SE 15.0 mph - N/A   Clear
6:50 PM 44.6 °F 38.1 °F 32.0 °F 61% 29.65 in - SE 13.8 mph - N/A   Clear
7:20 PM 44.6 °F 38.8 °F 32.0 °F 61% 29.65 in - SE 11.5 mph - N/A   Clear
7:50 PM 42.8 °F 37.0 °F 32.0 °F 66% 29.65 in - ESE 10.4 mph - N/A   Clear
8:20 PM 42.8 °F 37.5 °F 30.2 °F 61% 29.65 in - ESE 9.2 mph - N/A   Clear
8:50 PM 42.8 °F 37.0 °F 30.2 °F 61% 29.65 in - ESE 10.4 mph - N/A   Clear
9:20 PM 42.8 °F 35.8 °F 30.2 °F 61% 29.62 in - ESE 13.8 mph - N/A   Clear
9:50 PM 42.8 °F 34.5 °F 30.2 °F 61% 29.62 in - SE 18.4 mph - N/A   Clear
10:20 PM 42.8 °F 37.0 °F 30.2 °F 61% 29.62 in 6.2 mi SE 10.4 mph - N/A   Scattered Clouds
10:50 PM 42.8 °F 38.0 °F 30.2 °F 61% 29.62 in 6.2 mi SE 8.1 mph - N/A   Mostly Cloudy
11:20 PM 41.0 °F 37.1 °F 30.2 °F 65% 29.62 in 6.2 mi East 5.8 mph - N/A   Mostly Cloudy
11:50 PM 41.0 °F 35.2 °F 30.2 °F 65% 29.62 in 6.2 mi ESE 9.2 mph - N/A   Partly Cloudy